Location: Berlin
(42.3812°N, 71.6370°W)
Time: 05:51:25
(UTC+00:00)

Lacrosse 5 rocket - Pass Details

Date: 15 November 2025
Orbit: 406 x 493 km, 57.0° (Epoch: 09 December)

Event Time Altitude Azimuth Distance (km) Brightness Sun altitude
Exits shadow 10:37:28 - 334° (NNW) 1,635 3.4 -11.3°
Reaches altitude 10° 10:37:51 10° 337° (NNW) 1,510 3.2 -11.2°
Maximum altitude 10:40:35 23° 32° (NNE) 947 2.7 -10.7°
Drops below altitude 10° 10:43:16 10° 86° (E) 1,477 4.8 -10.3°
Sets 10:45:36 0° 102° (ESE) 2,328 6.9 -9.8°
